Time,TemperatureF,DewpointF,PressureIn,WindDirection,WindDirectionDegrees,WindSpeedMPH,WindSpeedGustMPH,Humidity,HourlyPrecipIn,Conditions,Clouds,dailyrainin,SoftwareType,DateUTC
2013-03-07 00:00:00,37.0,32.4,29.91,NW,315,1.6,6.0,83,0.00,,,0.00,pywws,2013-03-07 05:00:00,
2013-03-07 00:01:00,37.0,32.4,29.91,NW,315,1.6,6.0,83,0.00,,,0.00,pywws,2013-03-07 05:01:00,
2013-03-07 00:02:00,37.0,32.4,29.91,NW,315,1.6,6.0,83,0.00,,,0.00,pywws,2013-03-07 05:02:00,
2013-03-07 00:08:00,37.2,32.2,29.91,North,0,4.5,11.4,82,0.00,,,0.00,pywws,2013-03-07 05:08:00,
2013-03-07 00:13:00,37.6,32.6,29.91,SW,225,1.6,3.8,82,0.00,,,0.00,pywws,2013-03-07 05:13:00,
2013-03-07 00:19:00,37.4,32.1,29.91,West,270,3.1,6.0,81,0.00,,,0.00,pywws,2013-03-07 05:19:00,
2013-03-07 00:24:00,37.6,32.3,29.91,South,180,2.2,4.5,81,0.00,,,0.00,pywws,2013-03-07 05:24:00,
2013-03-07 00:30:00,37.6,32.0,29.91,North,0,3.1,6.0,80,0.00,,,0.00,pywws,2013-03-07 05:30:00,
2013-03-07 00:36:00,37.8,31.8,29.91,SE,135,2.2,6.0,79,0.00,,,0.00,pywws,2013-03-07 05:36:00,
2013-03-07 00:41:00,37.9,32.0,29.91,North,0,1.6,3.8,79,0.00,,,0.00,pywws,2013-03-07 05:41:00,
2013-03-07 00:47:00,37.9,32.0,29.92,North,0,4.5,8.3,79,0.00,,,0.00,pywws,2013-03-07 05:47:00,
2013-03-07 00:52:00,37.8,31.8,29.92,NW,315,3.8,5.4,79,0.00,,,0.00,pywws,2013-03-07 05:52:00,
2013-03-07 00:58:00,38.1,32.2,29.92,NW,315,0.7,2.2,79,0.00,,,0.00,pywws,2013-03-07 05:58:00,
2013-03-07 01:04:00,37.9,32.0,29.92,NNE,22,0.7,3.1,79,0.00,,,0.00,pywws,2013-03-07 06:04:00,
2013-03-07 01:09:00,38.1,31.9,29.92,East,90,0.7,6.9,78,0.00,,,0.00,pywws,2013-03-07 06:09:00,
2013-03-07 01:15:00,37.9,31.7,29.92,North,-999,0.0,1.6,78,0.00,,,0.00,pywws,2013-03-07 06:15:00,
2013-03-07 01:20:00,37.9,31.7,29.92,North,0,0.7,2.2,78,0.00,,,0.00,pywws,2013-03-07 06:20:00,
2013-03-07 01:26:00,37.9,31.7,29.93,NW,315,1.6,3.8,78,0.00,,,0.00,pywws,2013-03-07 06:26:00,
2013-03-07 01:32:00,38.1,31.6,29.92,NW,315,2.2,3.8,77,0.00,,,0.00,pywws,2013-03-07 06:32:00,
2013-03-07 01:37:00,38.1,31.6,29.93,NE,45,1.6,4.5,77,0.00,,,0.00,pywws,2013-03-07 06:37:00,
2013-03-07 01:43:00,38.1,31.6,29.92,NW,315,0.7,2.2,77,0.00,,,0.00,pywws,2013-03-07 06:43:00,
2013-03-07 01:48:00,38.1,31.2,29.92,NW,315,2.2,7.6,76,0.00,,,0.00,pywws,2013-03-07 06:48:00,
2013-03-07 01:54:00,38.1,31.6,29.92,North,0,0.7,3.1,77,0.00,,,0.00,pywws,2013-03-07 06:54:00,
2013-03-07 02:00:00,38.1,31.2,29.92,North,0,0.7,2.2,76,0.00,,,0.00,pywws,2013-03-07 07:00:00,
2013-03-07 02:05:00,38.1,31.2,29.92,North,0,0.7,2.2,76,0.00,,,0.00,pywws,2013-03-07 07:05:00,
2013-03-07 02:10:00,37.9,31.1,29.92,NW,315,1.6,4.5,76,0.00,,,0.00,pywws,2013-03-07 07:10:00,
2013-03-07 02:16:00,37.9,31.1,29.92,North,0,1.6,3.8,76,0.00,,,0.00,pywws,2013-03-07 07:16:00,
2013-03-07 02:21:00,37.9,31.1,29.92,NE,45,0.7,3.1,76,0.00,,,0.00,pywws,2013-03-07 07:21:00,
2013-03-07 02:27:00,37.9,31.1,29.92,South,180,1.6,3.8,76,0.00,,,0.00,pywws,2013-03-07 07:27:00,
2013-03-07 02:32:00,37.8,30.9,29.92,West,270,0.7,3.8,76,0.00,,,0.00,pywws,2013-03-07 07:32:00,
2013-03-07 02:38:00,37.6,30.7,29.93,North,0,0.7,2.2,76,0.00,,,0.00,pywws,2013-03-07 07:38:00,
2013-03-07 02:44:00,37.4,30.5,29.92,NW,315,2.2,4.5,76,0.00,,,0.00,pywws,2013-03-07 07:44:00,
2013-03-07 02:49:00,37.4,30.9,29.92,North,-999,0.0,0.7,77,0.00,,,0.00,pywws,2013-03-07 07:49:00,
2013-03-07 02:55:00,37.2,30.7,29.93,West,270,0.7,4.5,77,0.00,,,0.00,pywws,2013-03-07 07:55:00,
2013-03-07 03:01:00,37.0,30.5,29.92,West,270,2.2,4.5,77,0.00,,,0.00,pywws,2013-03-07 08:01:00,
2013-03-07 03:06:00,37.0,30.5,29.93,West,270,2.2,4.5,77,0.00,,,0.00,pywws,2013-03-07 08:06:00,
2013-03-07 03:12:00,37.0,30.5,29.93,NW,315,1.6,3.1,77,0.00,,,0.00,pywws,2013-03-07 08:12:00,
2013-03-07 03:17:00,36.9,30.3,29.93,NW,315,1.6,3.1,77,0.00,,,0.00,pywws,2013-03-07 08:17:00,
2013-03-07 03:22:00,36.9,30.3,29.93,North,0,0.7,3.1,77,0.00,,,0.00,pywws,2013-03-07 08:22:00,
2013-03-07 03:28:00,36.7,30.5,29.94,North,0,0.7,2.2,78,0.00,,,0.00,pywws,2013-03-07 08:28:00,
2013-03-07 03:33:00,36.9,30.3,29.93,NE,45,2.2,4.5,77,0.00,,,0.00,pywws,2013-03-07 08:33:00,
2013-03-07 03:39:00,36.9,30.3,29.93,North,0,3.1,6.9,77,0.00,,,0.00,pywws,2013-03-07 08:39:00,
2013-03-07 03:44:00,37.0,30.2,29.94,North,0,2.2,3.8,76,0.00,,,0.00,pywws,2013-03-07 08:44:00,
2013-03-07 03:50:00,36.9,30.0,29.95,NW,315,0.7,3.1,76,0.00,,,0.00,pywws,2013-03-07 08:50:00,
2013-03-07 03:56:00,36.9,30.3,29.95,North,0,0.7,2.2,77,0.00,,,0.00,pywws,2013-03-07 08:56:00,
2013-03-07 04:01:00,36.7,30.2,29.95,North,0,0.7,2.2,77,0.00,,,0.00,pywws,2013-03-07 09:01:00,
2013-03-07 04:07:00,36.3,30.1,29.96,North,-999,0.0,1.6,78,0.00,,,0.00,pywws,2013-03-07 09:07:00,
2013-03-07 04:13:00,36.1,30.0,29.96,West,270,2.2,5.4,78,0.00,,,0.00,pywws,2013-03-07 09:13:00,
2013-03-07 04:18:00,36.0,30.1,29.96,North,0,1.6,3.1,79,0.00,,,0.00,pywws,2013-03-07 09:18:00,
2013-03-07 04:24:00,36.1,30.0,29.96,NE,45,0.7,2.2,78,0.00,,,0.00,pywws,2013-03-07 09:24:00,
2013-03-07 04:29:00,36.0,29.8,29.96,North,-999,0.0,0.7,78,0.00,,,0.00,pywws,2013-03-07 09:29:00,
2013-03-07 04:35:00,36.0,30.1,29.97,NW,315,1.6,3.1,79,0.00,,,0.00,pywws,2013-03-07 09:35:00,
2013-03-07 04:40:00,36.1,30.0,29.96,NW,315,0.7,3.8,78,0.00,,,0.00,pywws,2013-03-07 09:40:00,
2013-03-07 04:46:00,36.0,29.8,29.96,SE,135,0.7,3.1,78,0.00,,,0.00,pywws,2013-03-07 09:46:00,
2013-03-07 04:52:00,36.0,29.8,29.96,North,-999,0.0,2.2,78,0.00,,,0.00,pywws,2013-03-07 09:52:00,
2013-03-07 04:57:00,35.8,29.9,29.96,North,-999,0.0,1.6,79,0.00,,,0.00,pywws,2013-03-07 09:57:00,
2013-03-07 05:03:00,35.8,29.9,29.97,NE,45,1.6,3.8,79,0.00,,,0.00,pywws,2013-03-07 10:03:00,
2013-03-07 05:08:00,35.6,29.7,29.97,SW,225,2.2,3.8,79,0.00,,,0.00,pywws,2013-03-07 10:08:00,
2013-03-07 05:13:00,35.6,29.7,29.97,North,0,0.7,3.8,79,0.00,,,0.00,pywws,2013-03-07 10:13:00,
2013-03-07 05:19:00,35.4,29.6,29.97,North,0,0.7,1.6,79,0.00,,,0.00,pywws,2013-03-07 10:19:00,
2013-03-07 05:24:00,35.2,29.4,29.98,NE,45,0.7,3.1,79,0.00,,,0.00,pywws,2013-03-07 10:24:00,
2013-03-07 05:30:00,35.4,29.9,29.98,North,-999,0.0,1.6,80,0.00,,,0.00,pywws,2013-03-07 10:30:00,
2013-03-07 05:36:00,35.2,29.7,29.98,West,270,2.2,5.4,80,0.00,,,0.00,pywws,2013-03-07 10:36:00,
2013-03-07 05:41:00,35.2,29.7,29.98,NW,315,1.6,3.8,80,0.00,,,0.00,pywws,2013-03-07 10:41:00,
2013-03-07 05:47:00,35.4,29.6,29.99,NW,315,2.2,6.0,79,0.00,,,0.00,pywws,2013-03-07 10:47:00,
2013-03-07 05:53:00,35.2,29.4,29.99,North,0,3.1,6.0,79,0.00,,,0.00,pywws,2013-03-07 10:53:00,
2013-03-07 05:58:00,35.1,29.5,29.99,North,-999,0.0,3.1,80,0.00,,,0.00,pywws,2013-03-07 10:58:00,
2013-03-07 06:04:00,35.1,29.5,29.99,North,0,0.7,1.6,80,0.00,,,0.00,pywws,2013-03-07 11:04:00,
2013-03-07 06:09:00,34.9,29.3,29.99,NW,315,1.6,4.5,80,0.00,,,0.00,pywws,2013-03-07 11:09:00,
2013-03-07 06:15:00,34.9,29.3,29.99,North,-999,0.0,1.6,80,0.00,,,0.00,pywws,2013-03-07 11:15:00,
2013-03-07 06:20:00,34.7,29.5,29.99,West,270,1.6,3.8,81,0.00,,,0.00,pywws,2013-03-07 11:20:00,
2013-03-07 06:26:00,34.9,29.7,30.00,North,-999,0.0,2.2,81,0.00,,,0.00,pywws,2013-03-07 11:26:00,
2013-03-07 06:32:00,34.7,29.5,30.00,NW,315,1.6,3.1,81,0.00,,,0.00,pywws,2013-03-07 11:32:00,
2013-03-07 06:37:00,34.5,29.3,30.00,North,0,0.7,3.1,81,0.00,,,0.00,pywws,2013-03-07 11:37:00,
2013-03-07 06:43:00,34.5,29.3,30.00,NW,315,0.7,2.2,81,0.00,,,0.00,pywws,2013-03-07 11:43:00,
2013-03-07 06:48:00,34.5,29.3,30.00,North,-999,0.0,1.6,81,0.00,,,0.00,pywws,2013-03-07 11:48:00,
2013-03-07 06:54:00,34.3,29.1,30.01,SW,225,0.7,1.6,81,0.00,,,0.00,pywws,2013-03-07 11:54:00,
2013-03-07 07:00:00,34.2,29.0,30.01,NW,315,0.7,2.2,81,0.00,,,0.00,pywws,2013-03-07 12:00:00,
2013-03-07 07:05:00,34.3,29.4,30.01,NW,315,1.6,3.8,82,0.00,,,0.00,pywws,2013-03-07 12:05:00,
2013-03-07 07:11:00,34.3,29.4,30.01,NW,315,0.7,1.6,82,0.00,,,0.00,pywws,2013-03-07 12:11:00,
2013-03-07 07:16:00,34.5,29.6,30.01,West,270,1.6,3.1,82,0.00,,,0.00,pywws,2013-03-07 12:16:00,
2013-03-07 07:22:00,34.7,29.8,30.01,North,0,0.7,2.2,82,0.00,,,0.00,pywws,2013-03-07 12:22:00,
2013-03-07 07:28:00,34.9,29.7,30.01,NW,315,0.7,1.6,81,0.00,,,0.00,pywws,2013-03-07 12:28:00,
2013-03-07 07:33:00,35.2,30.0,30.02,North,0,0.7,3.1,81,0.00,,,0.00,pywws,2013-03-07 12:33:00,
2013-03-07 07:39:00,35.6,30.1,30.02,North,0,0.7,2.2,80,0.00,,,0.00,pywws,2013-03-07 12:39:00,
2013-03-07 07:44:00,36.0,30.1,30.02,North,0,0.7,2.2,79,0.00,,,0.00,pywws,2013-03-07 12:44:00,
2013-03-07 07:50:00,36.5,30.3,30.02,NW,315,2.2,6.0,78,0.00,,,0.00,pywws,2013-03-07 12:50:00,
2013-03-07 07:56:00,37.2,30.7,30.02,NW,315,1.6,3.8,77,0.00,,,0.00,pywws,2013-03-07 12:56:00,
2013-03-07 08:01:00,38.1,30.9,30.03,North,0,2.2,6.0,75,0.00,,,0.00,pywws,2013-03-07 13:01:00,
2013-03-07 08:07:00,39.0,31.1,30.03,NE,45,2.2,5.4,73,0.00,,,0.00,pywws,2013-03-07 13:07:00,
2013-03-07 08:12:00,39.0,31.1,30.03,North,0,1.6,3.1,73,0.00,,,0.00,pywws,2013-03-07 13:12:00,
2013-03-07 08:18:00,38.8,30.3,30.03,North,0,5.4,9.2,71,0.00,,,0.00,pywws,2013-03-07 13:18:00,
2013-03-07 08:24:00,39.6,30.6,30.03,North,0,2.2,4.5,70,0.00,,,0.00,pywws,2013-03-07 13:24:00,
2013-03-07 08:29:00,39.7,30.4,30.03,North,-999,0.0,2.2,69,0.00,,,0.00,pywws,2013-03-07 13:29:00,
2013-03-07 08:35:00,40.1,30.0,30.03,North,0,2.2,7.6,67,0.00,,,0.00,pywws,2013-03-07 13:35:00,
2013-03-07 08:40:00,40.5,30.0,30.03,North,0,3.8,6.9,66,0.00,,,0.00,pywws,2013-03-07 13:40:00,
2013-03-07 08:46:00,41.2,29.9,30.03,North,0,3.1,5.4,64,0.00,,,0.00,pywws,2013-03-07 13:46:00,
2013-03-07 08:52:00,41.9,29.4,30.04,North,0,4.5,9.2,61,0.00,,,0.00,pywws,2013-03-07 13:52:00,
2013-03-07 08:57:00,41.9,28.6,30.03,NW,315,2.2,9.2,59,0.00,,,0.00,pywws,2013-03-07 13:57:00,
2013-03-07 09:03:00,42.4,29.1,30.03,North,0,2.2,5.4,59,0.00,,,0.00,pywws,2013-03-07 14:03:00,
2013-03-07 09:08:00,43.7,29.0,30.04,North,0,3.1,5.4,56,0.00,,,0.00,pywws,2013-03-07 14:08:00,
2013-03-07 09:14:00,44.6,29.0,30.04,North,0,3.1,6.0,54,0.00,,,0.00,pywws,2013-03-07 14:14:00,
2013-03-07 09:20:00,45.1,29.0,30.04,NW,315,3.1,6.0,53,0.00,,,0.00,pywws,2013-03-07 14:20:00,
2013-03-07 09:25:00,45.1,28.1,30.04,NE,45,4.5,8.3,51,0.00,,,0.00,pywws,2013-03-07 14:25:00,
2013-03-07 09:31:00,44.8,28.7,30.04,West,270,3.8,6.9,53,0.00,,,0.00,pywws,2013-03-07 14:31:00,
2013-03-07 09:37:00,44.6,28.1,30.04,North,0,5.4,15.2,52,0.00,,,0.00,pywws,2013-03-07 14:37:00,
2013-03-07 09:42:00,44.4,29.3,30.04,NW,315,1.6,6.0,55,0.01,,,0.01,pywws,2013-03-07 14:42:00,
2013-03-07 09:48:00,44.2,27.7,30.04,NW,315,6.0,9.8,52,0.01,,,0.01,pywws,2013-03-07 14:48:00,
2013-03-07 09:53:00,44.6,29.9,30.04,NE,45,0.7,2.2,56,0.01,,,0.01,pywws,2013-03-07 14:53:00,
2013-03-07 09:59:00,45.3,30.1,30.04,NW,315,2.2,4.5,55,0.01,,,0.01,pywws,2013-03-07 14:59:00,
2013-03-07 10:04:00,45.9,30.6,30.05,North,0,3.1,5.4,55,0.01,,,0.01,pywws,2013-03-07 15:04:00,
2013-03-07 10:10:00,45.9,28.8,30.05,NE,45,5.4,7.6,51,0.01,,,0.01,pywws,2013-03-07 15:10:00,
2013-03-07 10:16:00,45.9,28.8,30.05,NW,315,3.8,7.6,51,0.01,,,0.01,pywws,2013-03-07 15:16:00,
2013-03-07 10:21:00,45.5,28.4,30.05,NW,315,3.1,6.0,51,0.01,,,0.01,pywws,2013-03-07 15:21:00,
2013-03-07 10:27:00,44.6,28.1,30.05,NW,315,1.6,3.8,52,0.01,,,0.01,pywws,2013-03-07 15:27:00,
2013-03-07 10:34:00,45.5,28.9,30.05,NE,45,4.5,7.6,52,0.01,,,0.01,pywws,2013-03-07 15:34:00,
2013-03-07 10:39:00,46.2,28.1,30.05,NW,315,3.1,6.9,49,0.00,,,0.01,pywws,2013-03-07 15:39:00,
2013-03-07 10:44:00,46.0,28.0,30.05,NW,315,5.4,11.4,49,0.00,,,0.01,pywws,2013-03-07 15:44:00,
2013-03-07 10:50:00,46.4,27.3,30.05,NW,315,3.1,6.0,47,0.00,,,0.01,pywws,2013-03-07 15:50:00,
2013-03-07 10:56:00,46.4,27.8,30.05,NE,45,3.8,6.0,48,0.00,,,0.01,pywws,2013-03-07 15:56:00,
2013-03-07 11:01:00,46.8,27.1,30.04,North,0,3.1,6.0,46,0.00,,,0.01,pywws,2013-03-07 16:01:00,
2013-03-07 11:07:00,47.1,27.4,30.05,NE,45,3.1,6.9,46,0.00,,,0.01,pywws,2013-03-07 16:07:00,
2013-03-07 11:12:00,47.1,27.9,30.05,North,0,1.6,3.8,47,0.00,,,0.01,pywws,2013-03-07 16:12:00,
2013-03-07 11:18:00,47.7,25.7,30.05,NE,45,6.9,10.7,42,0.00,,,0.01,pywws,2013-03-07 16:18:00,
2013-03-07 11:23:00,48.0,25.5,30.05,North,0,3.8,11.4,41,0.00,,,0.01,pywws,2013-03-07 16:23:00,
2013-03-07 11:28:00,49.3,26.0,30.04,West,270,4.5,8.3,40,0.00,,,0.01,pywws,2013-03-07 16:28:00,
2013-03-07 11:34:00,49.8,28.2,30.04,East,90,2.2,3.8,43,0.00,,,0.01,pywws,2013-03-07 16:34:00,
2013-03-07 11:40:00,50.2,25.6,30.04,NW,315,3.8,6.9,38,0.00,,,0.01,pywws,2013-03-07 16:40:00,
2013-03-07 11:45:00,50.0,24.8,30.04,North,0,6.0,13.0,37,0.00,,,0.01,pywws,2013-03-07 16:45:00,
2013-03-07 11:51:00,50.2,27.4,30.04,North,0,2.2,9.2,41,0.00,,,0.01,pywws,2013-03-07 16:51:00,
2013-03-07 11:56:00,50.7,26.7,30.04,NE,45,3.1,8.3,39,0.00,,,0.01,pywws,2013-03-07 16:56:00,
2013-03-07 12:02:00,50.4,24.4,30.04,North,0,5.4,9.8,36,0.00,,,0.01,pywws,2013-03-07 17:02:00,
2013-03-07 12:08:00,50.7,25.4,30.04,WNW,292,5.4,19.0,37,0.00,,,0.01,pywws,2013-03-07 17:08:00,
2013-03-07 12:13:00,50.7,24.7,30.04,NW,315,4.5,10.7,36,0.00,,,0.01,pywws,2013-03-07 17:13:00,
2013-03-07 12:19:00,51.1,25.7,30.04,NW,315,2.2,6.9,37,0.00,,,0.01,pywws,2013-03-07 17:19:00,
2013-03-07 12:24:00,51.3,24.6,30.03,NNW,338,3.8,8.3,35,0.00,,,0.01,pywws,2013-03-07 17:24:00,
2013-03-07 12:30:00,51.4,24.0,30.03,North,0,3.8,6.0,34,0.00,,,0.01,pywws,2013-03-07 17:30:00,
2013-03-07 12:36:00,50.7,26.0,30.03,SW,225,2.2,4.5,38,0.00,,,0.01,pywws,2013-03-07 17:36:00,
2013-03-07 12:41:00,50.9,26.8,30.03,NW,315,1.6,3.1,39,0.00,,,0.01,pywws,2013-03-07 17:41:00,
2013-03-07 12:47:00,51.4,24.7,30.03,North,0,6.9,16.8,35,0.00,,,0.01,pywws,2013-03-07 17:47:00,
2013-03-07 12:52:00,51.6,24.9,30.03,North,0,3.1,6.9,35,0.00,,,0.01,pywws,2013-03-07 17:52:00,
2013-03-07 12:58:00,51.8,25.7,30.03,NE,45,6.0,10.7,36,0.00,,,0.01,pywws,2013-03-07 17:58:00,
2013-03-07 13:04:00,52.2,24.7,30.02,SW,225,3.8,9.2,34,0.00,,,0.01,pywws,2013-03-07 18:04:00,
2013-03-07 13:09:00,52.0,25.2,30.02,NE,45,3.1,7.6,35,0.00,,,0.01,pywws,2013-03-07 18:09:00,
2013-03-07 13:15:00,50.9,24.2,30.02,NW,315,3.8,9.8,35,0.00,,,0.01,pywws,2013-03-07 18:15:00,
2013-03-07 13:20:00,51.1,25.7,30.02,NW,315,3.8,5.4,37,0.00,,,0.01,pywws,2013-03-07 18:20:00,
2013-03-07 13:26:00,51.6,24.2,30.02,North,0,3.8,9.2,34,0.00,,,0.01,pywws,2013-03-07 18:26:00,
2013-03-07 13:32:00,52.7,24.4,30.01,NW,315,4.5,9.8,33,0.00,,,0.01,pywws,2013-03-07 18:32:00,
2013-03-07 13:37:00,53.6,23.7,30.01,NW,315,3.8,7.6,31,0.00,,,0.01,pywws,2013-03-07 18:37:00,
2013-03-07 13:42:00,53.1,26.1,30.01,NE,45,3.1,6.9,35,0.00,,,0.01,pywws,2013-03-07 18:42:00,
2013-03-07 13:48:00,52.3,23.4,30.01,North,0,4.5,8.3,32,0.00,,,0.01,pywws,2013-03-07 18:48:00,
2013-03-07 13:53:00,50.5,23.2,30.01,NW,315,3.8,8.3,34,0.00,,,0.01,pywws,2013-03-07 18:53:00,
2013-03-07 13:59:00,51.6,24.2,30.01,WNW,292,3.8,8.3,34,0.00,,,0.01,pywws,2013-03-07 18:59:00,
2013-03-07 14:04:00,51.6,22.7,30.01,NW,315,7.6,15.9,32,0.00,,,0.01,pywws,2013-03-07 19:04:00,
2013-03-07 14:10:00,52.3,24.8,30.01,NW,315,2.2,5.4,34,0.00,,,0.01,pywws,2013-03-07 19:10:00,
2013-03-07 14:16:00,52.7,22.9,30.01,NE,45,5.4,9.8,31,0.00,,,0.01,pywws,2013-03-07 19:16:00,
2013-03-07 14:21:00,52.0,24.5,30.01,WNW,292,3.8,8.3,34,0.00,,,0.01,pywws,2013-03-07 19:21:00,
2013-03-07 14:27:00,52.2,23.9,30.01,North,0,3.8,6.9,33,0.00,,,0.01,pywws,2013-03-07 19:27:00,
2013-03-07 14:33:00,52.7,23.7,30.01,SE,135,5.4,11.4,32,0.00,,,0.01,pywws,2013-03-07 19:33:00,
2013-03-07 14:38:00,52.0,23.1,30.02,NW,315,5.4,17.5,32,0.05,,,0.06,pywws,2013-03-07 19:38:00,
2013-03-07 14:44:00,51.6,22.7,30.02,NW,315,4.5,11.4,32,0.05,,,0.06,pywws,2013-03-07 19:44:00,
2013-03-07 14:49:00,52.0,25.2,30.02,East,90,4.5,10.7,35,0.05,,,0.06,pywws,2013-03-07 19:49:00,
2013-03-07 14:55:00,52.2,23.9,30.02,NW,315,1.6,3.8,33,0.05,,,0.06,pywws,2013-03-07 19:55:00,
2013-03-07 15:01:00,52.7,22.9,30.02,NW,315,6.9,14.5,31,0.05,,,0.06,pywws,2013-03-07 20:01:00,
2013-03-07 15:06:00,52.3,24.1,30.03,NW,315,5.4,8.3,33,0.05,,,0.06,pywws,2013-03-07 20:06:00,
2013-03-07 15:12:00,52.0,23.8,30.02,NW,315,3.8,6.9,33,0.05,,,0.06,pywws,2013-03-07 20:12:00,
2013-03-07 15:17:00,51.4,24.0,30.02,SE,135,3.1,6.9,34,0.05,,,0.06,pywws,2013-03-07 20:17:00,
2013-03-07 15:22:00,51.8,22.9,30.02,North,0,3.8,9.8,32,0.05,,,0.06,pywws,2013-03-07 20:22:00,
2013-03-07 15:27:00,50.9,23.5,30.03,NW,315,2.2,6.9,34,0.05,,,0.06,pywws,2013-03-07 20:27:00,
2013-03-07 15:32:00,51.3,23.2,30.02,NW,315,4.5,12.1,33,0.05,,,0.06,pywws,2013-03-07 20:32:00,
2013-03-07 15:38:00,51.8,22.9,30.03,NE,45,5.4,12.1,32,0.00,,,0.06,pywws,2013-03-07 20:38:00,
2013-03-07 15:44:00,49.6,22.4,30.03,NW,315,6.9,12.1,34,0.00,,,0.06,pywws,2013-03-07 20:44:00,
2013-03-07 15:49:00,50.9,23.5,30.03,NW,315,1.6,3.8,34,0.00,,,0.06,pywws,2013-03-07 20:49:00,
2013-03-07 15:54:00,50.9,22.1,30.03,WNW,292,8.3,18.3,32,0.00,,,0.06,pywws,2013-03-07 20:54:00,
2013-03-07 16:00:00,49.6,23.8,30.03,NW,315,6.0,12.1,36,0.00,,,0.06,pywws,2013-03-07 21:00:00,
2013-03-07 16:05:00,48.7,23.6,30.03,West,270,3.8,8.3,37,0.00,,,0.06,pywws,2013-03-07 21:05:00,
2013-03-07 16:11:00,50.0,24.8,30.04,NW,315,2.2,5.4,37,0.00,,,0.06,pywws,2013-03-07 21:11:00,
2013-03-07 16:16:00,50.4,23.1,30.03,North,0,6.0,10.7,34,0.00,,,0.06,pywws,2013-03-07 21:16:00,
2013-03-07 16:22:00,50.2,22.9,30.03,NW,315,6.0,11.4,34,0.00,,,0.06,pywws,2013-03-07 21:22:00,
2013-03-07 16:28:00,48.9,24.4,30.03,NW,315,3.8,10.7,38,0.00,,,0.06,pywws,2013-03-07 21:28:00,
2013-03-07 16:33:00,48.2,24.4,30.03,North,0,4.5,9.2,39,0.00,,,0.06,pywws,2013-03-07 21:33:00,
2013-03-07 16:38:00,47.8,25.9,30.03,North,0,3.8,8.3,42,0.00,,,0.06,pywws,2013-03-07 21:38:00,
2013-03-07 16:44:00,47.1,25.2,30.04,North,0,0.7,1.6,42,0.00,,,0.06,pywws,2013-03-07 21:44:00,
2013-03-07 16:49:00,46.8,25.5,30.04,NW,315,5.4,11.4,43,0.00,,,0.06,pywws,2013-03-07 21:49:00,
2013-03-07 16:55:00,46.6,25.3,30.05,North,0,1.6,3.8,43,0.00,,,0.06,pywws,2013-03-07 21:55:00,
2013-03-07 17:00:00,46.6,25.8,30.04,West,270,3.8,6.9,44,0.00,,,0.06,pywws,2013-03-07 22:00:00,
2013-03-07 17:06:00,45.9,25.2,30.05,North,0,2.2,4.5,44,0.00,,,0.06,pywws,2013-03-07 22:06:00,
2013-03-07 17:12:00,45.3,24.7,30.04,SW,225,2.2,8.3,44,0.00,,,0.06,pywws,2013-03-07 22:12:00,
2013-03-07 17:17:00,45.3,24.7,30.05,North,0,3.1,6.0,44,0.00,,,0.06,pywws,2013-03-07 22:17:00,
2013-03-07 17:23:00,45.1,25.1,30.05,North,0,1.6,3.1,45,0.00,,,0.06,pywws,2013-03-07 22:23:00,
2013-03-07 17:28:00,45.1,25.6,30.05,North,0,0.7,2.2,46,0.00,,,0.06,pywws,2013-03-07 22:28:00,
2013-03-07 17:34:00,45.0,24.9,30.05,NE,45,2.2,5.4,45,0.00,,,0.06,pywws,2013-03-07 22:34:00,
2013-03-07 17:40:00,45.0,25.4,30.05,North,0,0.7,3.1,46,0.00,,,0.06,pywws,2013-03-07 22:40:00,
2013-03-07 17:45:00,44.6,25.6,30.05,NW,315,0.7,2.2,47,0.00,,,0.06,pywws,2013-03-07 22:45:00,
2013-03-07 17:51:00,44.2,25.3,30.06,North,0,4.5,8.3,47,0.00,,,0.06,pywws,2013-03-07 22:51:00,
2013-03-07 17:56:00,44.1,25.1,30.06,North,0,3.8,8.3,47,0.00,,,0.06,pywws,2013-03-07 22:56:00,
2013-03-07 18:02:00,43.9,25.5,30.06,West,270,0.7,3.8,48,0.00,,,0.06,pywws,2013-03-07 23:02:00,
2013-03-07 18:08:00,43.5,25.1,30.06,NW,315,0.7,2.2,48,0.00,,,0.06,pywws,2013-03-07 23:08:00,
2013-03-07 18:13:00,43.2,25.3,30.06,NE,45,0.7,2.2,49,0.00,,,0.06,pywws,2013-03-07 23:13:00,
2013-03-07 18:19:00,43.2,25.3,30.06,NW,315,3.8,8.3,49,0.00,,,0.06,pywws,2013-03-07 23:19:00,
2013-03-07 18:24:00,43.0,25.1,30.07,West,270,1.6,3.8,49,0.00,,,0.06,pywws,2013-03-07 23:24:00,
2013-03-07 18:30:00,42.8,25.5,30.07,North,0,1.6,4.5,50,0.00,,,0.06,pywws,2013-03-07 23:30:00,
2013-03-07 18:36:00,42.6,25.8,30.08,North,0,2.2,3.1,51,0.00,,,0.06,pywws,2013-03-07 23:36:00,
2013-03-07 18:41:00,42.4,25.6,30.08,East,90,0.7,3.8,51,0.00,,,0.06,pywws,2013-03-07 23:41:00,
2013-03-07 18:47:00,42.4,25.6,30.08,West,270,1.6,3.8,51,0.00,,,0.06,pywws,2013-03-07 23:47:00,
2013-03-07 18:53:00,42.4,25.6,30.09,West,270,1.6,3.8,51,0.00,,,0.06,pywws,2013-03-07 23:53:00,
2013-03-07 18:58:00,42.6,25.3,30.09,SW,225,3.8,7.6,50,0.00,,,0.06,pywws,2013-03-07 23:58:00,
2013-03-07 19:04:00,42.8,25.5,30.09,North,0,1.6,3.1,50,0.00,,,0.06,pywws,2013-03-08 00:04:00,
2013-03-07 19:09:00,42.8,25.9,30.09,East,90,0.7,2.2,51,0.00,,,0.06,pywws,2013-03-08 00:09:00,
2013-03-07 19:15:00,42.8,25.5,30.09,North,0,1.6,5.4,50,0.00,,,0.06,pywws,2013-03-08 00:15:00,
2013-03-07 19:20:00,42.6,25.8,30.09,SW,225,1.6,5.4,51,0.00,,,0.06,pywws,2013-03-08 00:20:00,
2013-03-07 19:26:00,42.6,25.8,30.09,West,270,0.7,3.1,51,0.00,,,0.06,pywws,2013-03-08 00:26:00,
2013-03-07 19:32:00,42.4,25.6,30.10,SW,225,1.6,5.4,51,0.00,,,0.06,pywws,2013-03-08 00:32:00,
2013-03-07 19:37:00,42.4,25.1,30.09,NW,315,2.2,4.5,50,0.00,,,0.06,pywws,2013-03-08 00:37:00,
2013-03-07 19:43:00,42.4,25.6,30.09,North,-999,0.0,1.6,51,0.00,,,0.06,pywws,2013-03-08 00:43:00,
2013-03-07 19:48:00,42.1,25.3,30.10,North,0,1.6,4.5,51,0.00,,,0.06,pywws,2013-03-08 00:48:00,
2013-03-07 19:54:00,41.7,25.4,30.09,North,-999,0.0,1.6,52,0.00,,,0.06,pywws,2013-03-08 00:54:00,
2013-03-07 20:00:00,41.4,25.1,30.09,North,-999,0.0,1.6,52,0.00,,,0.06,pywws,2013-03-08 01:00:00,
2013-03-07 20:05:00,41.0,25.2,30.09,NW,315,0.7,3.1,53,0.00,,,0.06,pywws,2013-03-08 01:05:00,
2013-03-07 20:11:00,40.8,25.0,30.09,West,270,0.7,2.2,53,0.00,,,0.06,pywws,2013-03-08 01:11:00,
2013-03-07 20:16:00,40.5,24.7,30.10,North,-999,0.0,1.6,53,0.00,,,0.06,pywws,2013-03-08 01:16:00,
2013-03-07 20:22:00,40.5,24.7,30.10,North,0,3.1,7.6,53,0.00,,,0.06,pywws,2013-03-08 01:22:00,
2013-03-07 20:28:00,40.3,25.0,30.10,NW,315,0.7,2.2,54,0.00,,,0.06,pywws,2013-03-08 01:28:00,
2013-03-07 20:33:00,40.1,24.8,30.09,NW,315,2.2,5.4,54,0.00,,,0.06,pywws,2013-03-08 01:33:00,
2013-03-07 20:39:00,40.1,24.8,30.09,NW,315,0.7,3.1,54,0.00,,,0.06,pywws,2013-03-08 01:39:00,
2013-03-07 20:44:00,39.9,24.6,30.09,North,0,1.6,3.1,54,0.00,,,0.06,pywws,2013-03-08 01:44:00,
2013-03-07 20:50:00,39.9,25.1,30.09,North,0,2.2,6.9,55,0.00,,,0.06,pywws,2013-03-08 01:50:00,
2013-03-07 20:56:00,39.7,24.9,30.09,North,0,1.6,3.8,55,0.00,,,0.06,pywws,2013-03-08 01:56:00,
2013-03-07 21:01:00,39.6,24.7,30.09,North,0,0.7,2.2,55,0.00,,,0.06,pywws,2013-03-08 02:01:00,
2013-03-07 21:07:00,39.6,25.2,30.09,NE,45,1.6,3.1,56,0.00,,,0.06,pywws,2013-03-08 02:07:00,
2013-03-07 21:12:00,39.4,25.0,30.09,NW,315,0.7,3.1,56,0.00,,,0.06,pywws,2013-03-08 02:12:00,
2013-03-07 21:18:00,39.4,25.0,30.09,NW,315,1.6,2.2,56,0.00,,,0.06,pywws,2013-03-08 02:18:00,
2013-03-07 21:24:00,39.4,25.0,30.09,North,0,0.7,3.8,56,0.00,,,0.06,pywws,2013-03-08 02:24:00,
2013-03-07 21:29:00,39.4,25.0,30.09,North,0,2.2,3.8,56,0.00,,,0.06,pywws,2013-03-08 02:29:00,
2013-03-07 21:35:00,39.2,25.3,30.09,North,0,0.7,1.6,57,0.00,,,0.06,pywws,2013-03-08 02:35:00,
2013-03-07 21:41:00,39.2,25.3,30.09,NW,315,0.7,2.2,57,0.00,,,0.06,pywws,2013-03-08 02:41:00,
2013-03-07 21:46:00,39.2,25.3,30.09,North,0,0.7,1.6,57,0.00,,,0.06,pywws,2013-03-08 02:46:00,
2013-03-07 21:52:00,39.0,25.1,30.09,East,90,0.7,2.2,57,0.00,,,0.06,pywws,2013-03-08 02:52:00,
2013-03-07 21:57:00,39.0,25.5,30.09,North,0,2.2,5.4,58,0.00,,,0.06,pywws,2013-03-08 02:57:00,
2013-03-07 22:03:00,39.0,25.5,30.09,NW,315,0.7,2.2,58,0.00,,,0.06,pywws,2013-03-08 03:03:00,
2013-03-07 22:08:00,38.8,25.3,30.09,NW,315,1.6,5.4,58,0.00,,,0.06,pywws,2013-03-08 03:08:00,
2013-03-07 22:14:00,39.0,25.1,30.09,North,0,1.6,3.1,57,0.00,,,0.06,pywws,2013-03-08 03:14:00,
2013-03-07 22:19:00,39.0,25.1,30.09,West,270,1.6,4.5,57,0.00,,,0.06,pywws,2013-03-08 03:19:00,
2013-03-07 22:24:00,39.0,25.1,30.09,NW,315,3.8,9.2,57,0.00,,,0.06,pywws,2013-03-08 03:24:00,
2013-03-07 22:29:00,39.0,25.1,30.09,South,180,0.7,3.1,57,0.00,,,0.06,pywws,2013-03-08 03:29:00,
2013-03-07 22:35:00,38.7,25.2,30.09,North,0,0.7,3.1,58,0.00,,,0.06,pywws,2013-03-08 03:35:00,
2013-03-07 22:40:00,38.7,25.6,30.09,NW,315,0.7,1.6,59,0.00,,,0.06,pywws,2013-03-08 03:40:00,
2013-03-07 22:46:00,38.5,25.0,30.09,NW,315,1.6,3.1,58,0.00,,,0.06,pywws,2013-03-08 03:46:00,
2013-03-07 22:52:00,38.3,25.2,30.09,North,0,2.2,6.0,59,0.00,,,0.06,pywws,2013-03-08 03:52:00,
2013-03-07 22:57:00,38.3,24.8,30.09,South,180,0.7,2.2,58,0.00,,,0.06,pywws,2013-03-08 03:57:00,
2013-03-07 23:03:00,38.3,24.8,30.09,North,0,2.2,3.8,58,0.00,,,0.06,pywws,2013-03-08 04:03:00,
2013-03-07 23:08:00,38.1,25.1,30.09,NW,315,2.2,5.4,59,0.00,,,0.06,pywws,2013-03-08 04:08:00,
2013-03-07 23:13:00,38.1,25.1,30.09,NW,315,1.6,5.4,59,0.00,,,0.06,pywws,2013-03-08 04:13:00,
2013-03-07 23:19:00,37.9,24.9,30.09,NW,315,1.6,3.8,59,0.00,,,0.06,pywws,2013-03-08 04:19:00,
2013-03-07 23:24:00,37.8,24.7,30.09,North,-999,0.0,1.6,59,0.00,,,0.06,pywws,2013-03-08 04:24:00,
2013-03-07 23:30:00,37.6,25.0,30.09,NW,315,2.2,4.5,60,0.00,,,0.06,pywws,2013-03-08 04:30:00,
2013-03-07 23:36:00,37.4,24.8,30.09,NW,315,2.2,3.8,60,0.00,,,0.06,pywws,2013-03-08 04:36:00,
2013-03-07 23:41:00,37.4,25.2,30.09,North,0,1.6,3.8,61,0.00,,,0.06,pywws,2013-03-08 04:41:00,
2013-03-07 23:47:00,37.2,25.4,30.09,North,0,1.6,3.8,62,0.00,,,0.06,pywws,2013-03-08 04:47:00,
2013-03-07 23:52:00,37.2,25.4,30.09,North,0,0.7,1.6,62,0.00,,,0.06,pywws,2013-03-08 04:52:00,
2013-03-07 23:58:00,37.2,25.8,30.09,North,0,1.6,3.8,63,0.00,,,0.06,pywws,2013-03-08 04:58:00,